Location: Downe
(51.3167°N, 0.0500°E)
Time: 08:52:49
(UTC+00:00)

CZ-4C R/B - Pass Details

Date: 17 November 2019
Orbit: 650 x 1352 km, 63.4° (Epoch: 11 December)

Event Time Altitude Azimuth Distance (km) Brightness Sun altitude
Exits shadow 03:32:39 33° 20° (NNE) 1,519 3.7 -35.1°
Drops below altitude 10° 03:36:37 10° 43° (NE) 2,807 5.5 -34.5°
Sets 03:39:37 0° 49° (NE) 3,881 6.4 -34.0°
